Погода в Энгельберге

Швейцария     46°49′15″N   8°24′15″E
темп.,
°C
ветер,
м/с
пор.,
м/с
влажн.,
%
обл.,
%
осадки,
мм/ч
давл.,
гПа
погр.,
м
21 июня, пн
пн2123:00+9ююв559197 1.6 101379
02:00+9ю339049 2.3 101232
05:00+10ююв229392 0.9 101166
08:00+11ююв23856 2.1 1011256
11:00+14юв236332 0.5 10101123
14:00+14юв136959 2.6 1010885
17:00+14юв34666 2.8 10101205
20:00+12ююв34738 3.7 1010673
22 июня, вт
вт2223:00+9ююв229163 0.4 101370
02:00+7ююв11924 0.7 101312
05:00+7юв22914 0.3 101213
08:00+11ююв22784 0.7 1011280
11:00+13ю137282 1.8 1012850
14:00+13ююв127318 4.8 1013755
17:00+13св027046 3.2 1014736
20:00+10сз228793 5.1 1016232
23 июня, ср
ср2323:00+8св119075 0.4 101891
02:00+8в1195100 0.4 1018115
05:00+8всв119389 0.5 101855
08:00+9всв118618 1.1 1018215
11:00+12в1371100 1.2 1017873
14:00+14юв1458100 2.8 10161163
17:00+11ююв347584 2.9 1017796
20:00+8ю2292100 6.6 1019208
24 июня, чт
чт2423:00+8ююв339063 2.8 1020147
02:00+7ююв339081 2.9 101936
05:00+6ююв229058 0.0 101915
08:00+9ю11810 0.3 1018167
11:00+12всв02713 2.4 1017789
14:00+11ссз1269100 8.1 1017550
17:00+8зсз3393100 6.0 1020334
20:00+8ююз1181100 9.4 1020175
25 июня, пт
пт2523:00+5з118697 0.0 102110
02:00+4зюз118669 0.0 102010
05:00+3з01895 0.0 102010
08:00+7с118225 0.0 1019255
11:00+9ссз3284100 0.9 1018688
14:00+7ссз2296100 6.9 1019413
17:00+9ссз228491 5.8 1019531
20:00+8сз228467 6.4 1019483